カタログに戻る

KUIPER-00066

運用中通信LEO
NORAD 64526·PAYLOAD·🇺🇸 United States

打ち上げ Jun 23, 2025 から Cape Canaveral Space Force Station

Loading…

次のパス (今後24時間)

TLE

最新Source: CelesTrak SupGP

元期: Sep 14, 2026, 19:57 UTC

1 64526C 25134AC  26257.83131944  .00005311  00000+0  69529-3 0  2573
2 64526  51.9016  61.6292 0000644 106.1331  24.1548 14.79923663    17

AllMySatでKUIPER-00066をリアルタイム追跡

Download on the App Store